Bangor, ME

1:22 PM EDT on March 28, 2017 (GMT -0400)
Bangor International

Weather History for KBGR - October, 2014

Change the Weather History Date:

Saturday, October 25, 2014

  Actual Average Record
Temperature  
Mean Temperature 52 °F 44 °F  
Max Temperature 61 °F 54 °F 77 °F (1963)
Min Temperature 43 °F 34 °F 21 °F (1947)
Degree Days  
Heating Degree Days 13 21  
Month to date heating degree days 302 421  
Since 1 July heating degree days 537 693  
Cooling Degree Days 0 0  
Month to date cooling degree days 2 0  
Year to date cooling degree days 363 317  
Growing Degree Days 2 (Base 50)    
Moisture  
Dew Point 39 °F    
Average Humidity 61    
Maximum Humidity 93    
Minimum Humidity 29    
Precipitation  
Precipitation T in 0.13 in 1.81 in (1930)
Month to date precipitation 6.57 3.39  
Year to date precipitation 35.20 33.47  
Snow  
Snow 0.00 in 0.00 in 0.00 in (2002)
Month to date snowfall 0.0 0.1  
Since 1 July snowfall 0.0 0.1  
Since 1 September snowfall 0.0 0.1  
Snow Depth 0.00 in    
Sea Level Pressure  
Sea Level Pressure 29.60 in    
Wind  
Wind Speed 6 mph (West)    
Max Wind Speed 13 mph    
Max Gust Speed 18 mph    
Visibility 10 miles    
Events      
T = Trace of Precipitation, MM = Missing Value Source: NWS Daily Summary

Daily Weather History Graph

Daily Weather History Graph

Search for Another Location

Airport or City:

Trip Planner

Search our weather history database for the weather conditions in past years. The results will help you decide how hot, cold, wet, or windy it might be!

Date:

Astronomy

Oct. 25, 2014 Rise Set
Actual Time 7:03 AM EDT 5:34 PM EDT
Civil Twilight 6:33 AM EDT 6:04 PM EDT
Nautical Twilight 5:59 AM EDT 6:38 PM EDT
Astronomical Twilight 5:25 AM EDT 7:12 PM EDT
Moon 8:42 AM EDT (10/25) 6:51 PM EDT (10/25)
Length of Visible Light 11h 30m
Length of Day
10h 30m
Waxing Crescent, 3% of the Moon is Illuminated
Oct 25
Waxing Crescent
Oct 30
First Quarter
Nov 6
Full
Nov 14
Last Quarter
Nov 22
New

Hourly Weather History & Observations

Time (EDT) Temp. Windchill Dew Point Humidity Pressure Visibility Wind Dir Wind Speed Gust Speed Precip Events Conditions
12:53 AM 44.6 °F 41.4 °F 42.8 °F 93% 29.65 in 10.0 mi WNW 5.8 mph - N/A   Overcast
1:53 AM 44.1 °F 40.8 °F 42.1 °F 93% 29.65 in 10.0 mi WNW 5.8 mph - N/A   Mostly Cloudy
2:53 AM 44.1 °F 40.8 °F 42.1 °F 93% 29.65 in 10.0 mi NW 5.8 mph - 0.00 in   Overcast
3:53 AM 45.0 °F 41.8 °F 42.1 °F 90% 29.66 in 10.0 mi NW 5.8 mph - N/A   Overcast
4:53 AM 45.0 °F 39.7 °F 39.9 °F 82% 29.66 in 10.0 mi NNW 10.4 mph - N/A   Overcast
5:48 AM 44.6 °F 42.2 °F 39.2 °F 81% 29.66 in 10.0 mi NW 4.6 mph - N/A   Mostly Cloudy
5:53 AM 44.1 °F 40.8 °F 39.0 °F 82% 29.67 in 10.0 mi West 5.8 mph - N/A   Mostly Cloudy
6:53 AM 43.0 °F 39.5 °F 39.0 °F 86% 29.67 in 10.0 mi West 5.8 mph - N/A   Overcast
7:53 AM 44.1 °F 41.5 °F 39.0 °F 82% 29.67 in 10.0 mi WSW 4.6 mph - N/A   Overcast
8:53 AM 46.9 °F - 39.0 °F 74% 29.66 in 10.0 mi West 5.8 mph - N/A   Mostly Cloudy
9:53 AM 51.1 °F - 39.0 °F 63% 29.65 in 10.0 mi WNW 9.2 mph - N/A   Partly Cloudy
10:53 AM 53.1 °F - 39.0 °F 59% 29.64 in 10.0 mi West 5.8 mph - N/A   Partly Cloudy
11:53 AM 55.9 °F - 36.0 °F 47% 29.62 in 10.0 mi WNW 8.1 mph - N/A   Partly Cloudy
12:53 PM 57.9 °F - 35.1 °F 42% 29.60 in 10.0 mi NW 9.2 mph - N/A   Mostly Cloudy
1:53 PM 59.0 °F - 33.1 °F 38% 29.58 in 10.0 mi NNW 4.6 mph - N/A   Scattered Clouds
2:53 PM 60.1 °F - 33.1 °F 36% 29.56 in 10.0 mi NNW 4.6 mph - N/A   Scattered Clouds
3:53 PM 60.1 °F - 28.9 °F 31% 29.55 in 10.0 mi WSW 4.6 mph - N/A   Scattered Clouds
4:53 PM 54.0 °F - 35.1 °F 49% 29.54 in 10.0 mi South 3.5 mph - N/A   Mostly Cloudy
5:53 PM 53.1 °F - 39.0 °F 59% 29.55 in 10.0 mi South 8.1 mph - N/A   Mostly Cloudy
6:53 PM 48.9 °F - 39.9 °F 71% 29.54 in 10.0 mi South 5.8 mph - N/A   Mostly Cloudy
7:53 PM 46.9 °F - 42.1 °F 83% 29.53 in 10.0 mi SSE 4.6 mph - N/A   Mostly Cloudy
8:53 PM 48.0 °F - 43.0 °F 83% 29.52 in 10.0 mi South 4.6 mph - N/A   Mostly Cloudy
9:53 PM 46.0 °F 43.1 °F 43.0 °F 89% 29.49 in 10.0 mi SE 5.8 mph - N/A   Overcast
10:53 PM 48.0 °F - 44.1 °F 86% 29.47 in 10.0 mi Calm Calm - N/A   Overcast
11:53 PM 46.9 °F - 45.0 °F 93% 29.45 in 10.0 mi Calm Calm - N/A   Overcast